Regional Weather Roundup
Issued by NWS

Home | Current Version | Previous Version | Graphics & Text | Print | Product List | Glossary On
Versions: 1 2 3 4 5 6 7 8 9 10 11 12 13 14 15 16 17 18 19 20 21 22 23 24 25 26 27 28 29 30 31 32 33 34 35 36 37 38 39 40 41 42 43 44 45 46 47 48 49 50
000
ASUS43 KLSX 212159
RWRMO

WEATHER SUMMARY FOR MISSOURI
NATIONAL WEATHER SERVICE SPRINGFIELD MO
500 PM CDT SUN SEP 21 2014

NOTE: "FAIR" INDICATES FEW OR NO CLOUDS BELOW 12,000 FEET WITH NO
       SIGNIFICANT WEATHER AND/OR OBSTRUCTIONS TO VISIBILITY.
       CURRENT SKY AND/OR WEATHER CONDITIONS ARE NOT AVAILABLE FOR
       CHILLICOTHE AND FARMINGTON.

MOZ001>031-035>038-043-044-053-054-212300-
...NORTHERN AND WESTERN MISSOURI...

CITY           SKY/WX    TMP DP  RH WIND       PRES   REMARKS
KANSAS CTY INT MOSUNNY   74  47  38 N15G23    30.15F
KANSAS C DTWN  SUNNY     76  46  34 N14       30.14S
LEE`S SUMMIT   SUNNY     75  47  36 N14       30.15S
ST JOSEPH      SUNNY     74  48  39 N16       30.16S
KIRKSVILLE     PTSUNNY   69  49  48 NW10      30.13S

$$
MOZ066>068-077>081-088>096-101>105-212300-
...SOUTHWEST MISSOURI...

CITY           SKY/WX    TMP DP  RH WIND       PRES   REMARKS
SPRINGFIELD    SUNNY     76  48  37 N15       30.12R
JOPLIN         SUNNY     77  47  34 NW12      30.13S

$$
MOZ032>034-039>042-045>050-055>058-069>072-212300-
...CENTRAL MISSOURI...

CITY           SKY/WX    TMP DP  RH WIND       PRES   REMARKS
COLUMBIA       MOSUNNY   74  50  42 N17       30.10R
JEFFERSON CITY SUNNY     76  46  34 N14G22    30.09R
ROLLA          SUNNY     73  46  38 NW14      30.07S
SEDALIA        SUNNY     76  47  35 N13G21    30.12S
OSAGE BEACH    SUNNY     75  46  35 N6G16     30.10R

$$
MOZ051-052-059>065-212300-
...EAST CENTRAL MISSOURI...

CITY           SKY/WX    TMP DP  RH WIND       PRES   REMARKS
ST LOUIS INTL  MOSUNNY   75  49  39 NW16G22   30.05R
SPIRIT OF STL  MOSUNNY   75  49  39 NW14G22   30.05R
ST CHARLES     MOSUNNY   74  48  39 NW16G24   30.04R

$$
MOZ072>076-082>087-097>100-106>115-212300-
...SOUTH CENTRAL AND SOUTHEAST MISSOURI...

CITY           SKY/WX    TMP DP  RH WIND       PRES   REMARKS
CAPE GIRARDEAU SUNNY     80  48  32 NW12      29.99S
FARMINGTON     SUNNY     75  45  33 NW12      30.06R
POPLAR BLUFF   SUNNY     82  46  28 NW12      29.99S
WEST PLAINS    SUNNY     79  46  31 NW12      30.08S

$$



USA.gov is the U.S. government's official web portal to all federal, state and local government web resources and services.